Vertical_Velocity
-3 0 -2 2 -4 -1 -1 1 -1 1 -1 -1 -1 3 -1 -2 -0 -1 -12 1 1 -2 -0 1 1 2 -2 2 3 -0 -6 -0 -0 -1 0 7 -7 -3 2 -3 3 3 0 -5 -3
-0 -0 -0 3 -4 -1 -0 0 -1 2 -2 -1 2 1 -2 -1 -2 -5 13 1 3 3 2 -0 -1 1 0 -1 2 -5 -3 -4 -3 -2 -0 -5 -0 -2 2 0 -0 0 5 1 -1
-2 -1 -2 2 -0 -2 1 -1 -1 0 -1 1 1 -1 -1 1 -2 -1 2 -2 2 3 1 -1 -2 2 2 1 0 1 -3 -2 -5 -6 -13 2 1 -1 -3 -1 -4 -13 -6 -1 0
-5 2 -2 3 -2 -3 2 -1 -1 -1 -0 3 -0 -0 0 1 -6 3 2 4 0 3 1 1 -0 1 1 0 -0 -1 0 -2 1 11 -1 -2 1 1 -1 -5 1 2 -1 -3 -2
-3 2 -4 6 -4 -2 3 -0 0 -0 -0 -1 -0 1 -0 1 -12 1 5 3 2 3 0 1 1 1 -1 -2 2 1 0 1 -1 2 1 2 -1 -3 -0 1 -1 1 4 -3 -3
-3 0 -3 6 -5 -1 1 1 1 2 -1 0 1 1 0 -1 0 1 1 -0 5 0 1 -3 -4 1 0 1 -0 2 -0 2 3 1 -1 -3 0 -0 0 1 2 1 -1 1 6
-4 1 -0 6 -6 3 -0 1 0 0 -1 -0 -1 1 -1 -18 1 2 2 1 3 1 1 1 1 6 -0 1 2 0 -4 -1 0 2 1 0 -1 -0 2 3 -1 7 12 9 1
-1 -2 1 3 -4 4 0 1 1 -0 -1 2 3 -1 -11 -1 -3 1 -1 6 -1 -2 -1 0 12 4 1 4 -2 -4 -6 -3 -3 0 1 -5 -5 -0 4 -0 4 0 3 0 -1
2 -4 2 -1 -2 3 0 1 1 1 -0 3 -3 3 -11 -0 -5 0 -0 1 -1 0 9 5 2 -0 1 -3 -4 -4 -1 -0 0 -0 -1 -3 -1 1 8 1 1 2 3 1 1
0 -3 3 -3 2 1 2 2 1 0 2 0 0 2 2 3 1 -1 1 1 1 0 2 2 -1 -3 -3 -4 -5 -2 0 0 -1 -0 -1 -0 0 -1 1 3 2 2 2 1 -0
3 -3 2 -4 4 -1 3 -3 0 2 -2 -6 0 0 0 5 1 1 0 2 1 -1 -2 -0 -10 -1 -1 -1 -1 -1 -1 -0 -0 -0 -6 1 0 1 1 2 1 2 2 2 1
0 2 -2 -1 3 -0 2 -0 1 2 -3 -2 1 -4 -2 4 -4 -0 -2 -1 -2 -1 0 -9 -2 -2 -1 -0 -2 -1 -1 1 0 -1 -7 -0 2 1 -0 2 0 -0 1 1 -1
-8 5 -3 1 3 1 2 0 1 2 1 -0 -1 -2 1 3 -1 1 1 -0 -2 -0 -0 -4 -0 -0 -2 -0 -4 0 -2 -0 -3 0 -2 -2 -2 -1 0 0 2 3 2 2 -0
-11 2 2 2 3 2 -4 3 -0 3 -6 -8 -0 0 -1 0 -2 1 2 0 -3 -2 -1 -0 -0 -1 -1 -1 -3 -1 -0 -1 -1 -3 -3 -3 -5 -0 1 1 -0 1 2 2 1
-8 -1 2 3 6 -6 4 2 0 6 -7 -12 -0 2 4 -2 -0 -0 3 -1 -1 0 -8 -1 -0 -0 -2 1 -1 1 -1 -0 -0 -1 -4 -3 -6 -9 -0 2 1 1 1 -0 2
-4 1 -0 1 2 3 3 0 4 -22 -11 -1 -0 -1 -1 1 0 2 -1 -1 2 -3 -3 1 1 -2 0 1 -0 -0 -4 -4 -2 -1 -4 -1 -5 -6 -2 -4 1 1 -0 -0 -1
-0 -0 -2 2 1 2 2 3 -15 -7 -7 -1 -1 -0 -1 0 -0 -2 -1 -4 -4 -8 -3 -4 -1 -2 -1 -2 -1 -5 -5 -4 -5 -5 -6 -0 -1 -8 -1 -1 -5 -5 -1 -0 0
7 -5 0 0 0 4 2 -10 -2 -4 -2 -1 -1 -1 -3 -2 0 0 -1 -1 -2 -2 -2 -3 -9 -1 -2 -1 -5 1 -5 -7 -3 -2 -3 -1 -2 -11 -1 -0 1 -2 -4 0 3
10 -1 4 2 3 3 1 -4 -9 -2 -3 -2 -2 -2 1 0 -7 -3 -0 -0 0 -0 -8 -2 -1 -1 -1 0 -6 -2 -4 -4 -5 -0 -3 -2 -5 -5 -1 1 4 0 2 -1 -0
0 3 3 5 2 4 -7 -4 -2 -1 1 -1 -3 -5 -1 1 -4 -3 -1 -1 0 0 -1 -2 -3 -0 -0 -2 -1 -4 -5 -7 -4 -3 -1 -3 -1 -5 1 -0 0 1 -2 -1 6
1 3 3 4 4 4 -5 -4 -1 -2 1 -4 -1 -1 -1 -2 -2 0 -0 -1 -0 0 -1 -2 -9 -7 -3 -2 -2 -3 -1 -4 -7 -3 -4 -2 -9 -3 -4 -3 -2 -2 2 3 4
1 -3 3 7 -8 0 -1 -4 1 -2 2 -0 -4 -1 -2 -0 -0 -0 -2 -2 0 0 -1 1 -4 -1 -2 -1 -0 -1 -1 -3 -7 -1 -0 -4 -14 0 -0 -1 -0 2 0 1 4
0 1 6 3 -5 -1 -1 0 -1 -0 0 0 -0 -2 -0 -1 -7 -1 0 -0 0 -0 -3 -4 -2 -3 -10 -12 -5 0 1 -0 -1 -3 -2 -6 -13 -0 1 0 3 -2 3 2 -0
1 -5 1 1 1 -5 -1 1 -1 -0 0 0 -1 -2 -2 -1 -1 -1 1 -0 0 -0 1 -3 -1 -7 -10 -9 -3 1 1 0 -4 -3 -3 -5 -2 -0 -1 -0 2 1 1 0 1
3 -2 -1 -2 -1 -0 -1 -2 0 0 -0 0 -1 -2 -2 -2 -0 -0 0 1 -0 0 -0 -5 -2 -1 0 0 -0 -0 -1 0 -0 -2 -6 -5 -1 -3 -3 -2 -3 -1 1 1 0
-6 -6 0 0 2 -1 -1 -1 -2 1 -2 1 -5 0 -0 -3 -7 -4 -3 -2 -4 0 -1 -1 -2 -0 0 -1 -0 -0 -0 0 -0 0 0 0 -3 -2 2 3 2 0 -0 -0 -0
3 1 1 2 1 -3 -4 -1 -3 -2 1 1 -3 -3 -1 -0 -0 3 0 -1 -2 -4 -0 -2 -2 -2 -3 0 -2 -8 -6 -1 -1 -0 -6 -2 -11 0 1 1 -2 -1 -1 -2 -3
Height
1520 1519 1517 1514 1512 1512 1510 1509 1507 1506 1506 1507 1508 1506 1505 1505 1504 1502 1499 1501 1501 1502 1503 1503 1504 1505 1506 1507 1507 1507 1516 1524 1522 1521 1520 1516 1522 1527 1524 1521 1524 1526 1527 1530 1536
1517 1516 1514 1511 1509 1509 1507 1505 1504 1504 1505 1505 1506 1505 1505 1503 1502 1498 1498 1498 1500 1501 1502 1503 1504 1504 1505 1504 1506 1507 1520 1516 1512 1514 1517 1517 1516 1522 1525 1524 1524 1524 1528 1532 1537
1514 1512 1511 1509 1506 1506 1504 1503 1501 1502 1503 1504 1504 1504 1504 1503 1501 1496 1496 1496 1498 1499 1500 1502 1503 1504 1504 1504 1504 1506 1512 1509 1509 1505 1505 1510 1518 1521 1523 1526 1522 1522 1527 1534 1537
1511 1509 1508 1505 1503 1502 1501 1500 1499 1501 1502 1503 1503 1504 1503 1503 1504 1496 1495 1496 1495 1496 1497 1499 1501 1502 1501 1501 1501 1506 1502 1502 1500 1501 1505 1512 1518 1520 1522 1520 1521 1523 1527 1531 1537
1507 1506 1505 1502 1501 1500 1499 1498 1498 1499 1501 1501 1502 1503 1503 1502 1497 1495 1495 1495 1495 1494 1495 1496 1498 1498 1499 1500 1500 1503 1503 1503 1501 1506 1510 1515 1518 1519 1521 1521 1524 1528 1531 1532 1536
1503 1503 1502 1500 1498 1497 1497 1497 1497 1498 1499 1501 1502 1502 1502 1502 1496 1495 1494 1493 1493 1493 1493 1495 1494 1495 1498 1495 1497 1498 1502 1502 1505 1509 1511 1514 1518 1520 1521 1522 1525 1528 1530 1533 1536
1499 1499 1499 1497 1496 1495 1495 1495 1496 1497 1498 1500 1501 1500 1500 1495 1495 1494 1494 1492 1492 1492 1491 1492 1492 1494 1495 1496 1497 1499 1504 1502 1506 1508 1511 1513 1518 1520 1519 1523 1525 1529 1533 1537 1540
1496 1496 1496 1494 1493 1493 1493 1494 1495 1496 1498 1500 1500 1500 1496 1494 1494 1494 1493 1493 1491 1492 1492 1492 1493 1493 1495 1496 1499 1504 1509 1518 1509 1509 1513 1515 1529 1518 1520 1522 1528 1532 1535 1538 1540
1493 1492 1493 1492 1491 1492 1492 1493 1495 1496 1498 1499 1500 1500 1494 1493 1494 1493 1493 1493 1492 1491 1491 1492 1493 1493 1496 1502 1513 1514 1523 1518 1513 1510 1512 1514 1521 1523 1522 1524 1528 1531 1534 1537 1539
1489 1489 1490 1489 1490 1491 1492 1493 1495 1496 1498 1499 1500 1501 1492 1492 1492 1493 1493 1493 1493 1491 1491 1491 1490 1497 1503 1510 1529 1520 1519 1517 1517 1513 1511 1518 1530 1528 1526 1527 1528 1532 1534 1537 1540
1485 1487 1487 1488 1490 1491 1492 1493 1498 1499 1497 1493 1493 1491 1490 1491 1491 1492 1493 1493 1493 1492 1496 1493 1502 1511 1506 1504 1505 1508 1513 1515 1515 1512 1519 1532 1536 1534 1530 1531 1533 1535 1537 1539 1539
1483 1485 1485 1487 1489 1490 1491 1491 1493 1495 1494 1491 1492 1490 1490 1490 1491 1490 1492 1494 1493 1497 1496 1503 1511 1504 1503 1503 1506 1510 1517 1520 1516 1515 1518 1533 1539 1537 1535 1538 1537 1538 1540 1540 1541
1480 1483 1484 1486 1489 1490 1490 1491 1492 1493 1493 1489 1489 1489 1489 1490 1489 1490 1491 1492 1493 1496 1500 1505 1505 1501 1501 1507 1510 1516 1519 1519 1520 1519 1523 1530 1541 1541 1541 1540 1540 1542 1543 1544 1545
1478 1482 1483 1486 1491 1490 1490 1491 1492 1493 1500 1492 1488 1487 1488 1489 1489 1489 1490 1491 1492 1498 1500 1505 1503 1504 1507 1511 1513 1519 1516 1517 1522 1526 1540 1531 1550 1540 1542 1543 1543 1544 1546 1547 1548
1477 1480 1481 1486 1487 1489 1490 1490 1491 1492 1523 1488 1486 1486 1487 1490 1490 1490 1490 1491 1495 1498 1502 1509 1507 1508 1512 1512 1510 1517 1515 1519 1523 1533 1536 1538 1550 1543 1541 1544 1545 1546 1547 1548 1548
1475 1478 1480 1485 1486 1489 1488 1489 1491 1506 1517 1488 1483 1486 1488 1489 1490 1490 1490 1492 1494 1500 1502 1507 1506 1507 1510 1512 1511 1514 1520 1526 1532 1539 1552 1539 1545 1544 1544 1540 1544 1545 1545 1546 1548
1473 1476 1479 1483 1485 1487 1488 1489 1504 1515 1488 1490 1487 1485 1488 1491 1492 1493 1497 1501 1505 1515 1517 1513 1513 1510 1510 1514 1514 1519 1530 1554 1553 1558 1558 1541 1546 1541 1533 1534 1534 1539 1542 1545 1547
1471 1473 1477 1481 1484 1485 1486 1491 1505 1495 1492 1483 1484 1488 1493 1492 1497 1498 1501 1508 1504 1506 1521 1527 1533 1515 1512 1514 1520 1523 1529 1554 1546 1562 1552 1542 1547 1539 1532 1529 1532 1536 1540 1543 1545
1468 1472 1476 1480 1482 1483 1486 1503 1500 1492 1482 1484 1486 1494 1495 1493 1496 1501 1506 1509 1507 1505 1517 1524 1524 1514 1514 1514 1516 1524 1536 1532 1552 1560 1561 1554 1541 1535 1532 1532 1533 1536 1539 1541 1544
1466 1471 1474 1477 1480 1482 1487 1495 1488 1482 1480 1480 1492 1491 1498 1496 1499 1503 1506 1507 1507 1506 1506 1515 1527 1517 1515 1515 1518 1519 1526 1540 1550 1560 1552 1553 1547 1544 1537 1536 1536 1537 1538 1540 1543
1466 1470 1471 1474 1478 1480 1493 1489 1483 1478 1478 1479 1487 1491 1493 1497 1500 1506 1509 1508 1506 1506 1506 1511 1522 1525 1518 1524 1526 1527 1532 1540 1546 1556 1566 1574 1550 1531 1529 1529 1531 1533 1537 1539 1541
1464 1467 1468 1472 1478 1482 1487 1481 1480 1477 1476 1476 1479 1484 1491 1495 1502 1504 1507 1507 1507 1506 1509 1512 1524 1534 1525 1520 1521 1522 1526 1534 1556 1550 1564 1568 1552 1529 1528 1528 1531 1534 1536 1538 1539
1460 1463 1467 1469 1483 1484 1480 1477 1479 1477 1476 1476 1480 1481 1487 1496 1506 1506 1507 1507 1506 1506 1510 1511 1527 1545 1536 1529 1521 1521 1525 1533 1540 1550 1554 1575 1550 1529 1529 1530 1532 1534 1537 1538 1540
1458 1465 1467 1469 1471 1474 1477 1477 1479 1476 1476 1476 1481 1482 1489 1498 1500 1507 1508 1508 1507 1507 1508 1509 1523 1527 1537 1526 1525 1525 1524 1529 1533 1556 1548 1546 1531 1531 1530 1531 1533 1535 1536 1539 1541
1453 1456 1458 1470 1471 1471 1472 1475 1480 1479 1476 1477 1481 1483 1488 1499 1502 1506 1507 1508 1508 1508 1509 1512 1523 1524 1528 1529 1524 1521 1524 1529 1530 1531 1537 1528 1532 1525 1525 1527 1530 1533 1536 1538 1539
1449 1452 1457 1461 1464 1471 1472 1475 1477 1477 1478 1480 1484 1487 1487 1494 1494 1504 1503 1506 1505 1508 1511 1514 1527 1524 1527 1532 1532 1527 1524 1527 1527 1527 1529 1526 1525 1519 1521 1525 1529 1530 1533 1534 1536
1447 1449 1452 1463 1466 1471 1473 1473 1475 1475 1481 1481 1482 1487 1490 1491 1492 1493 1497 1499 1501 1507 1514 1519 1528 1534 1540 1540 1536 1541 1521 1520 1518 1517 1519 1526 1516 1517 1521 1522 1525 1527 1530 1532 1533